Regional Weather Roundup
Issued by NWS

Home | Current Version | Previous Version | Text Only | Print | Product List | Glossary Off
Versions: 1 2 3 4 5 6 7 8 9 10 11 12 13 14 15 16 17 18 19 20 21 22 23 24 25 26 27 28 29 30 31 32 33 34 35 36 37 38 39 40 41 42 43 44 45 46 47 48 49 50

000
ASUS43 KMPX 231801
RWRMN
WEATHER ROUNDUP FOR MINNESOTA
NATIONAL WEATHER SERVICE TWIN CITIES/CHANHASSEN MN
100 PM CDT SAT JUL 23 2016


NOTE: "FAIR" INDICATES FEW OR NO CLOUDS BELOW 12,000 FEET WITH NO
SIGNIFICANT WEATHER AND/OR OBSTRUCTIONS TO VISIBILITY. N/A MEANS
CURRENT SKY AND/OR WEATHER CONDITIONS ARE NOT AVAILABLE.

MNZ060>063-068>070-231900-
   Twin Cities Metro

CITY           SKY/WX    TMP DP  RH WIND       PRES   REMARKS
TWIN CITIES    LGT RAIN  73  71  93 E13       29.89S FOG
6HR MIN TEMP:  72; 6HR MAX TEMP:  82; 6HR PCP:  1.30;

ST PAUL        LGT RAIN  72  71  97 SE8       29.90F FOG
CRYSTAL        TSTM      72  69  90 S13G21    29.89S VSB 3/4
BLAINE         LGT RAIN  73  72  94 SE9G18    29.87F FOG
LAKEVILLE      LGT RAIN  72  72 100 E9        29.89F
EDEN PRAIRIE   LGT RAIN  74  71  91 E12       29.87F
6HR MIN TEMP:  71; 6HR MAX TEMP:  81; 6HR PCP:  0.94;

LAKEVILLE      LGT RAIN  72  72 100 E9        29.89F
SOUTH ST PAUL  LGT RAIN  72  71  96 E3        29.89F
LAKE ELMO      RAIN      72  72 100 S9        29.92F
$$
MNZ001>005-007-008-013>017-022>024-027-028-231900-
   Northwest Minnesota

CITY           SKY/WX    TMP DP  RH WIND       PRES   REMARKS
BEMIDJI        CLOUDY    79  64  61 SE14G21   29.85R
HALLOCK        RAIN      66  64  94 NE7       29.83R
ROSEAU         CLOUDY    72  64  78 N8        29.84R
WARROAD        CLOUDY    73  66  78 NE7       29.85R
CROOKSTON      CLOUDY    72  66  83 NW14G23   29.82R
FOSSTON        PTSUNNY   79  66  65 SE12G20   29.80R
DETROIT LAKES  CLOUDY    75  66  73 SE12      29.82R
MOORHEAD       CLOUDY    75  70  83 W5        29.82R
PARK RAPIDS    CLOUDY    77  66  68 SE9       29.84R
MAHNOMEN       FAIR      76  66  71 SE5G16    29.80R
$$
MNZ006-009>011-018-025>026-231900-
   North Central Minnesota

CITY           SKY/WX    TMP DP  RH WIND       PRES   REMARKS
BAUDETTE       CLOUDY    77  63  61 E8        29.85R
FLAG ISLAND    CLOUDY    72  63  73 NE7       29.86S
INTL FALLS     CLOUDY    79  63  57 SE10      29.89R
6HR MIN TEMP:  61; 6HR MAX TEMP:  80;

WASKISH        CLOUDY    79  66  65 E5        29.86R
BIG FORK       CLOUDY    75  64  69 SE5       29.91R
LONGVILLE      CLOUDY    73  66  78 SE3       29.88R
GRAND RAPIDS   CLOUDY    76  64  66 SE5       29.92R
ORR            CLOUDY    73  63  68 SE5       29.91R
COOK           CLOUDY    75  63  64 SE5       29.95R
WALKER         FAIR      75  66  73 SE8       29.86R
$$
MNZ012-019>021-037-231900-
   Northeast Minnesota

CITY           SKY/WX    TMP DP  RH WIND       PRES   REMARKS
DULUTH         CLOUDY    73  62  68 E13       29.94F
6HR MIN TEMP:  67; 6HR MAX TEMP:  78;

ELY            CLOUDY    77  57  50 SE12      29.97R
HIBBING        CLOUDY    75  60  59 SE9       29.92R
EVELETH        CLOUDY    75  58  54 SE6       29.95F
DULUTH HARBOR  CLOUDY    66  63  88 NE16G22   29.93F
TWO HARBORS    CLOUDY    73  63  68 E12G18    29.94F
SILVER BAY     CLOUDY    66  61  82 NE9       29.98F
GRAND MARAIS     N/A     66  56  70 NE10      30.02R
G MARAIS ARPRT CLOUDY    70  55  60 E10G16    30.06R
$$
MNZ029>031-032-039>041-046>048-054>057-064-231900-
   West Central Minnesota

CITY           SKY/WX    TMP DP  RH WIND       PRES   REMARKS
FERGUS FALLS   CLOUDY    75  66  73 SE9       29.80R
WHEATON        CLOUDY    79  70  73 SE9       29.79R
MORRIS         CLOUDY    73  72  94 E13       29.78R
ALEXANDRIA     LGT RAIN  70  68  93 E10       29.87R
ELBOW LAKE     FAIR      74  67  78 SE10      29.79R
WADENA         CLOUDY    72  66  83 SE10      29.84R
GLENWOOD       LGT RAIN  70  68  94 NE5       29.85R
APPLETON       CLOUDY    77  70  78 SE10      29.78R
BENSON         LGT RAIN  73  68  83 SE9       29.80R
ORTONVILLE     CLOUDY    77  70  78 SE17      29.77R
MADISON        CLOUDY    75  72  88 SE12G20   29.78S
WILLMAR        CLOUDY    70  70 100 E10       29.85R
$$
MNZ033>034-036-042>043-049>051-058-059-231900-
   Central Minnesota

CITY           SKY/WX    TMP DP  RH WIND       PRES   REMARKS
ST CLOUD       LGT RAIN  69  69 100 E9        29.86R
6HR MIN TEMP:  69; 6HR MAX TEMP:  75; 6HR PCP:  1.27;

SAUK CENTRE    RAIN      68  67  97 E12       29.84R
PAYNESVILLE    RAIN      70  70 100 SE7       29.88R
AITKIN         CLOUDY    77  64  65 SE8       29.88R
PINE RIVER     CLOUDY    72  66  83 SE5       29.90R
BRAINERD       LGT RAIN  72  68  87 S7        29.88R FOG
STAPLES        LGT RAIN  70  66  88 SE5       29.85S
LONG PRAIRIE   RAIN      68  66  94 CALM      29.87R
LITTLE FALLS   TSTM      68  64  88 E9        29.84F
LITCHFIELD     LGT RAIN  72  72 100 E8        29.86R
BUFFALO        RAIN      71  68  91 E7        29.88R
MAPLE LAKE     LGT RAIN  72  71  96 E13       29.87R
HUTCHINSON     LGT RAIN  72  71  97 E8        29.86R
$$
MNZ037-044-045-052-053-231900-
   East Central Minnesota

CITY           SKY/WX    TMP DP  RH WIND       PRES   REMARKS
PRINCETON      RAIN      72  68  88 W5        29.88F
MORA           LGT RAIN  73  64  73 S14G24    29.91R
CAMBRIDGE      RAIN      73  64  73 SE6       29.90R
RUSH CITY      CLOUDY    74  67  78 S12G22    29.93R THUNDER
MOOSE LAKE     CLOUDY    75  66  73 CALM      29.89S
HINCKLEY       FAIR      77  70  78 SE7       29.91R
CLOQUET        CLOUDY    72  59  64 E9        29.93F
MCGREGOR       CLOUDY    75  68  78 SE6       29.91R
$$
MNZ071>073-080-081-089-090-097-098-231900-
   Southwest Minnesota

CITY           SKY/WX    TMP DP  RH WIND       PRES   REMARKS
MONTEVIDEO     CLOUDY    77  73  88 S10       29.82R
GRANITE FALLS  CLOUDY    77  72  84 E10       29.83R
CANBY          CLOUDY    80  73  80 E9        29.80S
MARSHALL       CLOUDY    80  76  87 E8        29.80R
REDWOOD FALLS  CLOUDY    74  70  87 NE8       29.82R
OLIVIA         CLOUDY    70  68  94 E7        29.83R
PIPESTONE      CLOUDY    84  75  74 S16       29.81R HX  92
WINDOM         CLOUDY    82  72  69 S12       29.83R
WORTHINGTON    PTSUNNY   83  77  82 S10G17    29.83R HX  92
JACKSON        CLOUDY    79  72  78 S12       29.84R
TRACY          CLOUDY    85  77  79 SW8       29.82R HX  95
SLAYTON        PTSUNNY   83  73  71 S14G20    29.83R
$$
MNZ065>067-074>077-082>085-091>093-231900-
   South Central Minnesota

CITY           SKY/WX    TMP DP  RH WIND       PRES   REMARKS
MANKATO        CLOUDY    75  70  83 SE18      29.84R
NEW ULM        CLOUDY    77  73  88 SE7       29.83R
ST JAMES       CLOUDY    72  66  83 SE10G21   29.82R
FAIRMONT       CLOUDY    75  55  50 SE12      29.80S
GLENCOE        CLOUDY    73  73  98 E14G20    29.86R
FARIBAULT      CLOUDY    72  72 100 E14G24    29.88F
OWATONNA       CLOUDY    73  70  88 SE20      29.89F
WASECA         CLOUDY    72  70  94 SE20G25   29.87F
ALBERT LEA     CLOUDY    73  73 100 SE15      29.89F
$$
MNZ078>079-086>088-094>096-231900-
   Southeast Minnesota

CITY           SKY/WX    TMP DP  RH WIND       PRES   REMARKS
ROCHESTER      TSTM      71  70  96 SE12G24   29.98R FOG
6HR MIN TEMP:  71; 6HR MAX TEMP:  78; 6HR PCP:  0.79;

RED WING       RAIN      72  70  94 SE9       29.93S
STANTON        CLOUDY    72  68  88 SE12G20   29.88F
DODGE CENTER   LGT RAIN N/A N/A N/A SE16G22   29.94F
WINONA         RAIN      72  70  94 SE12      29.96F
AUSTIN         TSTM      72  70  94 E13       29.95F
PRESTON        HVY RAIN  70  68  94 NE10G20   29.97R
$$
ABBREVIATIONS USED IN REMARKS
   TC - TEMPERATURES IN CELSIUS
  WCI - WIND CHILL INDEX
   HX - HEAT INDEX
  VSB - VISIBILITY
$$




USA.gov is the U.S. government's official web portal to all federal, state and local government web resources and services.